Tracking 21496 objects as of 1-Oct-2020
HD Live streaming from Space Station
objects crossing your sky now

INFLATABLE TEST MODULE


INFLATABLE TEST MODULE is no longer on orbit


NORAD ID: 45600
Int'l Code: 2020-027B
Perigee: N/A
Apogee: N/A
Inclination: N/A
Period: N/A
Semi major axis: N/A
RCS: N/A
Launch date: May 5, 2020
Source: People's Republic of China (PRC)
Launch site: Wenchang Satellite Launch Center (WSC)
Decay date: 2020-05-06
aabbcc
Your satellite tracking list
Your tracking list is empty




NASA's NSSDC Master Catalog

Two Line Element Set (TLE):
1 45600U 20027B   20126.97420378  .00327396  72394-5  10000-3 0  9991
2 45600  41.1024 326.2229 0153157 172.3557 299.0218 16.03267776    92
Source of the keplerian elements: AFSPC